Location: Zilina
(49.2167°N, 18.7333°E)
Time: 07:47:30
(UTC+02:00)

Daily predictions for brighter satellites

Satellite Brightness Start Highest point End
(mag) Time Altitude Azimuth Time Altitude Azimuth Time Altitude Azimuth
S3M 4.2 20:20:53 10° N 20:27:02 57° ENE 20:33:13 10° SSE
Cosmos 405 Rocket 4.4 20:25:46 10° NNW 20:29:15 35° W 20:32:47 10° SSW
Meteor 2-4 Rocket 4.2 20:24:22 10° N 20:29:34 41° ENE 20:34:51 10° SE
Cosmos 1980 Rocket 2.2 20:24:46 10° S 20:30:16 61° ESE 20:35:48 10° NE
Envisat 3.1 20:25:14 10° SSE 20:30:18 89° E 20:35:26 10° NNW
Cosmos 1553 Rocket 4.0 20:24:50 10° N 20:31:02 65° ENE 20:37:06 10° SSE
ERS-1 Rocket 3.9 20:27:13 10° SE 20:31:41 33° ENE 20:36:09 10° N
Iridium 30 4.4 20:30:37 10° S 20:33:45 78° E 20:37:32 10° N
USA 186 2.6 20:30:31 10° S 20:33:49 58° W 20:37:11 10° NNW
Cosmos 2056 Rocket 3.7 20:31:25 10° SSW 20:36:33 80° WNW 20:41:49 10° NNE
ATLAS 2AS CENTAUR R/B 4.1 20:33:25 10° SSE 20:38:49 21° ESE 20:44:24 10° ENE
USA 229 DEB 4.4 20:32:52 10° WSW 20:39:37 61° NW 20:46:34 10° NE
USA 229 4.4 20:32:58 10° WSW 20:39:44 61° NW 20:46:41 10° NE
Meteor 2-11 Rocket 4.5 20:33:55 10° N 20:40:03 89° E 20:46:08 10° S
Helios 1A 3.2 20:36:44 10° SSE 20:40:53 58° ENE 20:45:04 10° N
Meteor 1-29 4.3 20:39:19 10° NE 20:42:01 21° E 20:44:41 10° SE
NOSS 3-1 (A) 3.4 20:38:50 10° SSW 20:44:38 70° SE 20:51:15 10° NE
SOZ 4.5 20:43:36 10° WNW 20:46:44 68° NNE 20:48:42 11° E
Cosmos 1697 Rocket 3.2 20:41:15 10° SW 20:46:50 68° WNW 20:52:29 10° NNE
Cosmos 1607 4.4 20:42:09 10° NW 20:48:30 56° NE 20:54:36 11° ESE
Cosmos 44 3.7 20:46:59 10° NW 20:51:17 54° WSW 20:55:42 10° SSE
ERBS 3.0 20:51:50 10° SSW 20:55:01 34° SE 20:58:12 10° ENE
Meteor 1-11 Rocket 3.9 20:51:28 10° S 20:57:10 56° E 21:02:47 10° NNE
Cosmos 1850 Rocket 4.1 20:54:21 10° NNW 20:59:43 73° ENE 21:04:52 11° SSE
Cosmos 1452 Rocket 3.5 20:55:20 10° SSW 21:00:35 73° ESE 21:05:53 10° NNE
Cosmos 1420 Rocket 4.0 21:01:03 10° S 21:06:07 58° ESE 21:11:13 10° NNE
Resurs 01 Rocket 3.7 21:03:29 10° SSW 21:07:16 27° W 21:11:05 10° NW
Cosmos 2360 4.3 21:01:43 10° SSW 21:07:25 87° WNW 21:13:10 10° NNE
YAOGAN 6 2.9 21:04:03 10° S 21:07:36 67° W 21:11:08 10° NNW
Cosmos 1633 3.8 21:05:43 10° SSW 21:09:12 45° WNW 21:12:44 10° N
Okean 1-7 Rocket 4.3 21:05:45 10° N 21:09:55 37° ENE 21:13:01 16° SE
Cosmos 1655 Rocket 4.3 21:04:12 10° SSW 21:10:28 74° W 21:16:51 10° N
SPOT 1/Viking Rocket 4.4 21:10:35 15° SE 21:14:21 36° ENE 21:19:06 10° N
NOSS 3-1 (C) 4.0 21:09:19 10° SW 21:15:13 66° NW 21:21:59 10° NE
Okean 1 Rocket 3.4 21:12:52 11° SSE 21:16:52 43° E 21:21:02 10° NNE
NOSS 2-3 (C) 4.5 21:18:09 10° S 21:22:29 36° ESE 21:27:30 10° NE
USA 215 4.2 21:17:21 10° ENE 21:23:30 45° N 21:29:40 10° WNW
Meteor 1-23 Rocket 4.2 21:18:45 10° N 21:24:21 80° ENE 21:29:21 13° SSE
Cosmos 1300 Rocket 3.4 21:21:57 10° S 21:26:14 78° E 21:30:34 10° NNE
MetOp-A 4.1 21:21:24 13° SSE 21:26:15 81° ENE 21:31:38 10° NNW
Cosmos 2151 Rocket 4.1 21:22:42 10° SSW 21:27:02 62° WNW 21:31:25 10° N
Terra 3.2 21:26:47 17° ESE 21:29:12 25° ENE 21:33:03 10° N
Cosmos 2278 Rocket 4.2 21:26:34 10° N 21:30:20 18° NE 21:34:06 10° ENE
USA 238 DEB 4.1 21:23:47 10° NW 21:30:47 59° NE 21:36:06 18° ESE
USA 238 4.1 21:23:53 10° NW 21:30:53 59° NE 21:36:12 18° ESE
Cosmos 1975 4.4 21:31:02 18° E 21:31:27 18° E 21:34:14 10° NE
Cosmos 1025 Rocket 3.0 21:31:20 10° N 21:35:36 68° ENE 21:38:13 23° SSE
Cosmos 2263 Rocket 2.3 21:31:14 10° NNW 21:36:57 75° WSW 21:41:13 18° SSE
Cosmos 2322 Rocket 2.1 21:31:47 10° SSW 21:37:28 73° ESE 21:43:10 10° NNE
SeaSat 1 3.5 21:33:07 10° NNE 21:37:53 48° NW 21:42:36 10° SW
Helios 1B rocket 2.8 21:36:27 10° N 21:40:32 67° WNW 21:44:37 10° SSW
ARGOS 3.1 21:37:05 17° SSE 21:41:16 87° ENE 21:46:40 10° NNW
USA 245 3.9 21:37:31 18° SSE 21:41:30 79° ENE 21:45:59 10° N
BREEZE M DEB (TANK) 4.2 21:38:41 10° SSW 21:42:17 18° S 21:42:17 18° S
CZ-4B DEB 4.2 21:40:55 12° SSW 21:43:12 30° W 21:45:49 10° NNW
Abrixas rocket 2.1 21:41:34 10° W 21:44:52 76° S 21:46:11 33° E
Cosmos 220 Rocket 4.0 21:41:16 10° NNW 21:45:34 84° WSW 21:47:57 26° SSE
Cosmos 1844 Rocket 3.6 21:40:31 10° NNW 21:45:49 38° NE 21:49:01 21° ESE
SL-16 R/B 2.1 21:40:50 10° SSW 21:46:30 83° ESE 21:52:13 10° NNE
Cosmos 1238 Rocket 4.3 21:39:54 10° N 21:46:31 56° ENE 21:50:36 24° SE
H-2A R/B 3.7 21:47:48 17° E 21:49:15 20° ENE 21:52:28 10° NNE
SL-08 RB Rocket 3.6 21:46:52 23° SSE 21:49:42 85° ENE 21:54:16 10° NNW
Tiangong 1 2.9 21:49:23 10° WSW 21:50:36 17° SW 21:50:36 17° SW
H-2A R/B 1.9 21:49:25 25° SSE 21:52:28 76° ENE 21:57:30 10° NNW
Cosmos 2322 4.3 21:51:08 25° SSE 21:53:29 35° ESE 21:58:35 10° NE
Cosmos 1536 3.5 21:49:52 10° SSW 21:53:52 55° WNW 21:57:54 10° N
SL-8 R/B 3.6 21:49:32 10° W 21:54:21 78° S 21:56:53 28° ESE
Cosmos 839 Rocket 4.4 21:49:16 10° SW 21:55:24 68° NW 22:01:52 10° NE
Lacrosse 5 rocket 3.6 21:53:44 10° W 21:55:31 13° SW 21:57:21 10° SSW
ATLAS 3B R/B 2.6 21:50:00 10° NW 21:56:53 82° NE 22:00:43 27° SE
COSMOS 2428 3.9 21:59:46 23° ESE 21:59:57 23° ESE 22:04:21 10° NE
Cosmos 1244 Rocket 4.5 21:56:07 20° SSE 22:00:24 62° E 22:06:27 10° NNE
Cosmos 2219 Rocket 4.0 22:02:25 14° E 22:02:25 14° E 22:04:29 10° ENE
NOSS 2-3 (D) 3.9 21:57:14 10° SSW 22:01:58 66° SE 22:07:35 10° NE
SPOT 5 3.0 22:00:07 24° S 22:03:09 74° WSW 22:07:54 10° NNW
Cosmos 1892 Rocket 3.6 22:02:16 10° N 22:06:42 66° ENE 22:08:11 39° SE
NOSS 3-2 (C) 4.5 22:00:30 10° NW 22:07:30 50° NE 22:12:56 20° ESE
Meteor 1-5 Rocket 4.4 22:03:28 10° SSW 22:08:47 68° WNW 22:14:05 10° N
Cosmos 1844 4.4 22:04:53 10° NNW 22:10:17 44° NE 22:12:52 28° ESE
ERS-1 Rocket 4.1 22:06:05 12° SSW 22:10:23 39° W 22:15:06 10° NNW
EXPRESS MD2 3.6 22:07:27 10° WSW 22:10:51 72° SSE 22:17:46 10° ENE
Lacrosse 5 2.3 22:11:22 37° SSE 22:11:56 38° SE 22:16:37 10° ENE
GP-B 4.1 22:08:19 10° NNE 22:12:16 30° E 22:12:40 29° E
Cosmos 2360 Rocket 2.2 22:09:04 19° S 22:13:01 59° ESE 22:18:34 10° NE
Atlas Centaur 2 4.3 22:10:28 10° SW 22:13:44 14° SSW 22:13:54 14° SSW
Cosmos 2333 Rocket 4.0 22:15:22 14° E 22:15:22 14° E 22:17:18 10° ENE
Cosmos 1980 Rocket 4.2 22:09:49 10° WSW 22:14:40 29° NW 22:19:33 10° NNE
Cosmos 2315 Rocket 4.4 22:10:04 10° NNW 22:16:11 60° W 22:21:01 17° SSW
Cosmos 1515 4.1 22:12:56 10° NNW 22:16:42 58° W 22:18:02 35° SSW
Molniya-1 4.0 22:19:02 10° NW 22:21:28 53° NE 22:21:28 53° NE
Cosmos 1486 Rocket 3.9 22:18:47 10° NNW 22:24:05 80° ENE 22:25:53 42° SSE
BREEZE-M DEB (TANK) 4.1 22:22:56 10° WSW 22:23:00 10° WSW 22:23:00 10° WSW
Okean 2 4.4 22:21:45 10° NNW 22:25:37 41° W 22:27:30 25° SSW
DMSP B5D2-2 4.0 22:21:07 10° NNE 22:26:22 66° ESE 22:28:22 38° S
Cosmos 1544 Rocket 3.6 22:26:33 51° SE 22:27:22 61° E 22:31:47 10° NNE
ATLAS 2AS CENTAUR R/B 3.0 22:20:52 10° SSW 22:28:39 77° SE 22:36:49 10° NE
Cosmos 1302 Rocket 4.2 22:29:35 44° SE 22:30:37 50° ESE 22:35:43 10° NNE
ERBS 3.5 22:28:16 10° W 22:31:37 44° NNW 22:34:58 10° NE
Cosmos 1437 Rocket 3.7 22:32:37 35° ENE 22:32:37 35° ENE 22:35:45 10° NNE
Cosmos 1500 3.5 22:36:32 45° SW 22:37:32 65° WNW 22:41:25 10° N
Cosmos 1110 Rocket 4.0 22:34:49 18° SSW 22:38:39 78° WNW 22:43:52 10° NNE
Meteor 1-21 4.4 22:33:36 10° N 22:39:09 59° ENE 22:40:42 44° SE
NOSS 2-3 (E) 4.2 22:34:21 10° SW 22:39:12 71° NW 22:45:05 10° NE
Meteor 1-12 Rocket 4.1 22:37:02 38° S 22:39:16 76° E 22:44:56 10° NNE
Cosmos 1455 Rocket 3.0 22:39:46 62° SSE 22:40:22 72° E 22:44:51 10° NNE
Cosmos 405 2.9 22:40:31 80° W 22:40:34 80° WNW 22:44:10 10° N
Cosmos 2237 Rocket 4.0 22:42:56 16° E 22:42:56 16° E 22:45:04 10° ENE
CZ-2C R/B 4.2 22:41:12 23° E 22:42:07 25° ENE 22:45:59 10° N
Cosmos 1066 Rocket 4.3 22:37:50 10° NNW 22:43:11 67° W 22:45:16 37° SSW
CENTAUR R/B 3.8 22:43:00 10° NW 22:50:08 44° NNE 22:56:10 17° E
Landsat 7 4.4 22:49:51 36° SSW 22:51:21 49° W 22:56:01 10° NNW
Cosmos 1745 Rocket 3.8 22:52:00 40° S 22:54:21 83° E 23:00:32 10° N
Cosmos 1818 4.3 22:56:56 35° E 22:56:56 35° E 23:00:55 10° NE
Cosmos 1331 Rocket 4.3 22:52:25 20° SW 22:55:58 64° WNW 23:01:12 10° NNE
Cosmos 1354 Rocket 4.0 22:52:42 10° NNW 22:58:04 83° ENE 22:59:07 59° SE
ALOS 2 4.3 22:57:59 21° ENE 22:58:21 22° ENE 23:01:41 10° NNE
COSMOS 2455 4.4 22:54:22 10° NNW 22:59:34 29° NE 23:03:12 17° E
USA 81 4.2 22:57:56 10° N 23:03:10 57° E 23:03:49 53° ESE
Cosmos 1842 3.6 23:01:26 10° N 23:04:53 59° NE 23:04:53 59° NE
USA 215 3.7 23:01:12 19° E 23:05:57 59° NNE 23:12:22 10° WNW
Terra 2.4 23:05:41 42° SW 23:06:41 49° W 23:11:20 10° NNW
Cosmos 1975 3.8 23:06:49 37° WSW 23:07:39 42° WNW 23:11:29 10° N
CARTOSAT-1 4.4 23:10:57 38° WSW 23:11:31 40° W 23:15:37 10° NNW
ATLAS CENTAUR R/B 3.5 23:10:03 10° N 23:12:26 16° NNE 23:13:41 14° NE
BREEZE-M (TANK) 3.6 23:03:44 10° WNW 23:13:18 48° SW 23:13:24 48° SW
IGS 5A 4.4 23:14:31 37° WSW 23:14:52 37° W 23:18:46 10° NNW
Cosmos 2278 Rocket 2.3 23:09:53 10° NNW 23:15:34 67° ENE 23:16:39 54° ESE
Cosmos 2237 4.3 23:13:37 34° SW 23:16:14 77° WNW 23:21:58 10° NNE
Cosmos 1602 Rocket 3.6 23:15:20 10° NNW 23:19:38 66° W 23:19:38 66° W
BREEZE-M DEB 4.4 23:16:13 10° WNW 23:19:48 26° WSW 23:19:48 26° WSW
USA 238 DEB 4.4 23:15:02 10° NW 23:21:37 42° WSW 23:23:31 36° SSW
USA 238 4.4 23:15:08 10° NW 23:21:44 43° WSW 23:23:37 36° SSW
Cosmos 1503 Rocket 4.1 23:16:36 10° NNW 23:21:56 66° WSW 23:22:38 59° SSW
Cosmos 2322 Rocket 4.3 23:17:22 10° W 23:22:05 26° NW 23:26:51 10° NNE
NOSS 3-2 (A) 4.0 23:15:12 10° NW 23:22:35 71° SW 23:25:04 47° SSE
Cosmos 1666 3.2 23:23:53 58° NNW 23:23:53 58° NNW 23:27:15 10° N
CZ-4B R/B 3.4 23:18:49 10° NNE 23:23:14 60° E 23:23:14 60° E
Spot 4 3.9 23:24:02 64° SW 23:24:21 66° WSW 23:29:08 10° NNW
Cosmos 1953 Rocket 4.5 23:20:20 10° N 23:24:16 38° ENE 23:24:16 38° ENE
H-2A R/B 2.5 23:24:56 53° W 23:24:56 53° W 23:29:12 10° NNW
Aureole 2 Rocket 4.5 23:28:13 23° NNE 23:28:13 23° NNE 23:29:33 10° NNE
Timation 1 Rocket 4.2 23:22:41 10° NNW 23:28:43 88° ENE 23:29:44 64° SE
Cosmos 1743 3.7 23:29:13 42° WNW 23:29:13 42° WNW 23:32:44 10° N
Cosmos 1844 Rocket 3.3 23:24:27 10° NW 23:29:49 44° WSW 23:30:40 41° SW
Cosmos 1241 Rocket 4.4 23:29:01 45° SSW 23:31:12 82° SE 23:37:41 10° NE
SL-16 R/B 4.4 23:26:51 10° W 23:31:20 23° NW 23:35:51 10° N
H-2A R/B 4.2 23:30:04 12° WSW 23:32:27 17° W 23:35:37 10° NW
deb Chang Zheng 4 3.6 23:29:57 10° NNE 23:34:04 76° NNW 23:34:04 76° NNW
Meteor 1-15 Rocket 4.4 23:34:39 56° ESE 23:35:00 57° E 23:40:47 10° NNE
Meteor 2-9 Rocket 4.1 23:36:49 68° S 23:37:37 87° E 23:43:21 10° NNE
NOSS 0 Rocket 4.1 23:38:10 54° ESE 23:38:13 54° ESE 23:44:17 10° NE
COSMOS 2428 2.9 23:41:45 41° SW 23:43:43 67° WNW 23:49:27 10° NNE
CZ-4 R/B 4.0 23:39:48 10° N 23:44:29 65° WNW 23:44:53 62° W
Cosmos 2219 Rocket 2.0 23:44:06 75° S 23:44:35 83° ESE 23:50:16 10° NNE
ATLAS 3B R/B 3.9 23:41:36 10° WNW 23:46:48 24° WSW 23:47:57 23° SW
SL-16 R/B 3.7 23:48:03 22° E 23:48:03 22° E 23:51:16 10° NE
Cosmos 2181 Rocket 4.0 23:42:48 10° NNW 23:49:16 77° W 23:50:29 60° SSW
GP-B 4.4 23:45:38 10° NNW 23:49:34 31° WNW 23:50:08 30° W
Cosmos 1606 Rocket 4.4 23:51:18 45° NE 23:51:18 45° NE 23:54:44 10° NNE
Meteor 1-4 Rocket 3.9 23:52:17 38° N 23:52:17 38° N 23:54:45 10° N
CZ-2C R/B 2.7 23:46:56 10° NNE 23:52:06 60° E 23:52:06 60° E
Lacrosse 5 2.3 23:50:01 12° WSW 23:54:46 62° NNW 23:59:49 10° NE
